This demonstration page uses our WeatherBlox Daily Observations layout. Learn more.

Left ArrowRight Arrow

36.19886, -115.1175

Hourly Observations for December 14, 2018

Temp ( °F °C ) Dew Point ( °F °C ) Humidity (%) Winds ( mph kmh ) Pressure ( in mb ) Visibility ( mi km ) Precip ( " mm )
12:53 am 00:53 Clear 39 3.9 18 -7.8 43 43 NNW 6 9 30.4 1030 10 16.0934 N/A
1:53 am 01:53 Clear 39 3.9 19 -7.2 45 45 NW 5 7 30.41 1030 10 16.0934 N/A
2:53 am 02:53 Clear 40 4.4 18 -7.8 41 41 N N/A 30.39 1029 10 16.0934 N/A
3:53 am 03:53 Clear 38 3.3 20 -6.7 48 48 WNW 3 6 30.39 1029 10 16.0934 N/A
4:53 am 04:53 Clear 38 3.3 20 -6.7 48 48 NNW 5 7 30.38 1029 10 16.0934 N/A
5:53 am 05:53 Clear 38 3.3 20 -6.7 48 48 N 5 7 30.39 1029 10 16.0934 N/A
6:53 am 06:53 Sunny 39 3.9 19 -7.2 45 45 N N/A 30.4 1030 10 16.0934 N/A
7:53 am 07:53 Sunny 41 5 19 -7.2 41 41 NNW 3 6 30.41 1030 10 16.0934 N/A
8:53 am 08:53 Sunny 45 7.2 18 -7.8 34 34 NNW 5 7 30.42 1030 10 16.0934 N/A
9:53 am 09:53 Sunny 47 8.3 18 -7.8 31 31 N N/A 30.42 1030 10 16.0934 N/A
10:53 am 10:53 Sunny 50 10 18 -7.8 28 28 S 7 11 30.37 1029 10 16.0934 N/A
11:53 am 11:53 Sunny 53 11.7 15 -9.4 22 22 S 6 9 30.34 1027 10 16.0934 N/A
12:53 pm 12:53 Sunny 53 11.7 14 -10 21 21 SSE 8 13 30.31 1027 10 16.0934 N/A
1:53 pm 13:53 Sunny 54 12.2 15 -9.4 21 21 SE 6 9 30.29 1026 10 16.0934 N/A
2:53 pm 14:53 Sunny 54 12.2 13 -10.6 19 19 SSE 5 7 30.29 1026 10 16.0934 N/A
3:53 pm 15:53 Sunny 53 11.7 14 -10 21 21 SSE 5 7 30.28 1025 10 16.0934 N/A
4:53 pm 16:53 Clear 53 11.7 16 -8.9 23 23 S 5 7 30.28 1026 10 16.0934 N/A
5:53 pm 17:53 Clear 51 10.6 16 -8.9 25 25 S 6 9 30.28 1025 10 16.0934 N/A
6:53 pm 18:53 Clear 50 10 18 -7.8 28 28 S 3 6 30.28 1026 10 16.0934 N/A
7:53 pm 19:53 Clear 50 10 19 -7.2 29 29 N N/A 30.29 1026 10 16.0934 N/A
8:53 pm 20:53 Clear 49 9.4 21 -6.1 33 33 SSE 3 6 30.28 1025 10 16.0934 N/A
9:53 pm 21:53 Clear 49 9.4 21 -6.1 33 33 SSE 5 7 30.27 1025 10 16.0934 N/A
10:53 pm 22:53 Mostly Clear 48 8.9 22 -5.6 36 36 E 3 6 30.26 1025 10 16.0934 N/A
11:53 pm 23:53 Clear 48 8.9 22 -5.6 36 36 N N/A 30.24 1024 10 16.0934 N/A

Powered by AerisWeather